This is the latest recevied weather packets stored in our database for station/object DM4XI-13. If no packets are shown the sender has not sent any weather packets the latest 10 day(s).
| Time | Temp. | Humidity | Pressure | Rain* | Wind** | Luminosity | Snow |
|---|---|---|---|---|---|---|---|
| 1777350149 | 6.67° C | 59% | 1016.7 hPa | 0 mm | 0 m/s | 10 W/m² | - |
| 1777350089 | 6.67° C | 59% | 1016.8 hPa | 0 mm | 0.45 m/s, 247° | 10 W/m² | - |
| 1777350028 | 6.67° C | 59% | 1016.6 hPa | 0 mm | 0.45 m/s, 263° | 10 W/m² | - |
| 1777349967 | 6.67° C | 59% | 1016.7 hPa | 0 mm | 0.45 m/s, 263° | 9 W/m² | - |
| 1777349905 | 6.67° C | 59% | 1016.5 hPa | 0 mm | 0 m/s | 9 W/m² | - |
| 1777349845 | 6.67° C | 59% | 1016.5 hPa | 0 mm | 0.45 m/s, 278° | 9 W/m² | - |
| 1777349784 | 6.67° C | 59% | 1016.6 hPa | 0 mm | 0.45 m/s, 264° | 8 W/m² | - |
| 1777349723 | 6.67° C | 59% | 1016.5 hPa | 0 mm | 0.45 m/s, 260° | 8 W/m² | - |
| 1777349662 | 6.67° C | 59% | 1016.8 hPa | 0 mm | 0.45 m/s, 265° | 8 W/m² | - |
| 1777349601 | 6.67° C | 59% | 1016.6 hPa | 0 mm | 0.45 m/s, 290° | 7 W/m² | - |
| 1777349539 | 6.67° C | 59% | 1016.5 hPa | 0 mm | 0.45 m/s, 277° | 7 W/m² | - |
| 1777349478 | 6.67° C | 59% | 1016.4 hPa | 0 mm | 0 m/s | 6 W/m² | - |
| 1777349418 | 6.67° C | 59% | 1016.4 hPa | 0 mm | 0.45 m/s, 265° | 6 W/m² | - |
| 1777349356 | 6.67° C | 59% | 1016.6 hPa | 0 mm | 0 m/s | 6 W/m² | - |
| 1777349296 | 6.67° C | 59% | 1016.6 hPa | 0 mm | 0.45 m/s, 337° | 5 W/m² | - |
| 1777349234 | 6.67° C | 59% | 1016.5 hPa | 0 mm | 0.45 m/s, 15° | 5 W/m² | - |
| 1777349174 | 6.67° C | 60% | 1016.4 hPa | 0 mm | 0.45 m/s, 249° | 5 W/m² | - |
| 1777349112 | 6.67° C | 59% | 1016.6 hPa | 0 mm | 0.45 m/s, 267° | 4 W/m² | - |
| 1777349052 | 6.67° C | 59% | 1016.6 hPa | 0 mm | 0.45 m/s, 245° | 4 W/m² | - |
| 1777348991 | 6.67° C | 59% | 1016.4 hPa | 0 mm | 0.45 m/s, 278° | 4 W/m² | - |
| 1777348930 | 6.67° C | 59% | 1016.3 hPa | 0 mm | 0.45 m/s, 264° | 3 W/m² | - |
| 1777348869 | 6.67° C | 59% | 1016.4 hPa | 0 mm | 0.45 m/s, 247° | 3 W/m² | - |
| 1777348809 | 6.67° C | 59% | 1016.5 hPa | 0 mm | 0 m/s | 3 W/m² | - |
| 1777348747 | 6.67° C | 59% | 1016.5 hPa | 0 mm | 0 m/s | 3 W/m² | - |
| 1777348686 | 6.67° C | 59% | 1016.4 hPa | 0 mm | 0 m/s | 2 W/m² | - |
* Rain latest hour (hover to see other rain measurements)
** Current wind speed in m/s (hover to see current wind gust speed)